Theta_e
306 305 305 305 306 306 306 306 306 306 306 306 306 306 306 306 306 306 306 306 306 306 307 306 306 307 307 307 307 307 306 305 304 304 303 301 302 303 304 305 306 306 307 309 308 309 309 307 307 306 308 307 303 306 304 301 306 319 323 319 317 315 312 309 304 302 305 305 301 299 300 302 302 297 293 292 292 294 294 293 292 289 288 288 289 288 289 290
306 306 306 306 306 306 306 306 306 306 306 307 307 306 306 306 306 306 306 306 306 306 306 306 306 307 307 307 307 307 306 305 304 303 302 302 303 304 305 305 306 307 307 308 309 309 309 308 305 305 311 309 303 304 305 301 305 317 318 313 316 315 307 304 303 301 301 302 302 300 299 300 301 298 293 296 297 294 295 296 294 292 292 290 287 288 289 289
306 306 306 306 306 306 306 306 306 306 307 307 307 306 306 306 306 306 306 306 306 306 306 306 306 306 307 307 307 307 306 305 304 303 303 303 304 304 305 306 306 307 308 308 309 308 308 308 304 307 315 311 304 305 307 305 303 307 314 315 313 309 302 299 301 302 299 301 305 301 298 298 298 296 294 298 299 295 296 298 297 295 296 294 288 287 288 287
306 306 306 306 306 306 306 306 306 307 307 307 306 306 306 305 306 305 306 306 306 306 306 307 306 305 306 306 307 307 306 306 303 302 303 303 303 304 304 306 306 307 308 308 309 308 308 307 305 311 316 312 310 310 308 305 303 304 309 313 306 302 301 298 299 301 298 300 305 301 298 299 297 295 296 298 299 298 297 297 298 299 299 295 288 285 286 286
306 306 306 306 306 306 306 307 307 307 307 307 306 306 305 305 305 305 306 306 306 306 306 306 307 306 305 305 306 306 307 308 304 301 303 303 303 304 304 305 306 306 308 308 308 308 308 306 308 317 315 312 316 313 305 301 302 303 301 301 301 300 300 297 296 299 300 300 303 301 301 301 296 295 296 297 299 302 302 297 297 298 297 293 288 286 285 285
306 305 305 306 306 306 306 306 307 307 307 306 306 305 304 304 305 305 305 306 306 306 306 306 306 308 306 306 305 305 308 307 302 302 303 303 303 304 305 305 306 306 307 308 308 307 308 309 311 321 317 310 310 308 305 300 300 305 300 297 299 299 299 297 295 297 300 303 306 304 301 298 296 298 297 296 298 301 300 294 292 292 291 290 287 285 285 285
306 305 305 305 305 306 306 306 306 307 307 306 305 305 304 304 305 305 306 306 306 306 306 305 306 307 306 306 304 305 308 304 301 303 303 303 304 305 305 305 306 306 307 308 307 307 311 312 311 316 317 310 305 303 303 301 303 308 303 298 297 298 298 297 295 297 300 304 303 299 298 298 300 299 295 295 297 298 294 288 288 289 288 287 286 285 285 285
307 306 305 305 305 306 306 306 306 306 306 306 305 305 304 305 305 305 306 306 306 306 305 305 306 306 306 307 307 309 306 302 301 303 303 303 304 305 305 305 306 306 306 306 306 307 309 311 310 310 313 307 303 304 303 303 306 306 301 298 297 297 297 296 298 300 302 301 296 295 299 299 300 296 293 297 297 296 291 286 286 286 286 286 286 286 285 285
307 306 306 305 306 306 306 306 306 306 305 305 305 305 305 304 304 305 305 305 306 306 305 306 306 306 306 305 309 311 304 301 302 302 303 304 304 305 305 305 305 306 306 304 304 305 307 309 309 308 308 305 304 306 305 305 305 303 301 299 298 297 296 295 299 301 300 299 295 297 302 298 294 294 295 298 297 294 290 288 287 287 288 287 286 285 285 285
307 306 306 306 306 306 306 305 306 305 305 305 305 305 305 304 305 305 305 306 306 306 306 306 305 306 305 304 310 309 302 301 302 302 303 303 305 305 306 305 305 306 305 303 303 303 306 307 304 303 306 307 305 305 304 305 303 302 303 301 300 300 297 296 298 299 297 297 296 297 301 298 293 294 299 298 294 291 291 291 288 289 290 288 285 285 285 285
307 306 306 306 306 306 306 306 306 305 305 305 305 305 304 304 305 305 305 306 306 306 306 306 306 306 304 304 310 306 301 302 302 303 303 303 304 304 305 305 305 305 304 303 302 301 303 303 300 302 307 306 305 304 301 301 299 300 303 301 302 304 299 297 298 297 296 297 296 295 297 297 292 295 299 298 292 290 292 293 289 289 290 287 285 285 284 285
307 307 306 306 306 306 306 306 306 306 305 305 305 305 304 304 305 305 305 307 307 307 305 306 306 305 305 304 305 304 301 302 302 303 303 303 304 303 303 305 305 305 305 303 302 302 302 302 303 306 307 304 305 304 301 301 301 301 303 301 303 306 302 298 298 296 296 298 296 295 298 298 295 297 299 297 291 289 291 293 291 290 288 286 285 284 284 285
307 307 306 306 306 306 306 306 306 306 305 305 305 304 305 304 305 305 305 306 307 306 305 306 305 305 308 306 303 302 302 302 302 303 303 303 303 303 303 304 304 305 305 304 302 302 302 302 304 305 306 307 305 300 300 303 303 302 302 303 303 308 307 299 296 296 296 297 295 296 302 304 300 298 298 295 291 290 292 293 291 290 288 286 285 284 285 284
306 307 307 307 306 306 306 306 305 305 305 305 305 305 305 304 305 305 305 307 307 307 306 306 305 305 307 306 302 302 303 302 303 304 304 304 304 304 303 303 304 303 303 303 302 302 303 302 303 303 302 305 302 299 305 308 307 303 301 305 304 305 312 302 296 298 296 296 295 296 301 303 301 301 297 291 290 291 295 296 292 290 288 287 286 285 285 285
307 307 307 307 306 306 306 305 305 305 305 305 304 305 304 305 305 305 306 307 306 306 306 306 305 306 307 304 301 303 303 302 304 303 304 305 305 305 303 303 303 303 303 302 302 302 302 302 304 305 301 300 301 303 310 309 308 306 303 311 307 303 311 307 298 299 298 297 295 297 301 301 299 300 296 289 289 290 294 296 292 290 289 287 287 286 286 286
306 307 307 307 307 306 306 305 305 305 306 305 305 305 304 305 306 306 307 306 306 306 306 307 304 306 309 304 301 303 302 302 303 302 303 304 304 305 304 303 303 303 303 302 303 302 302 304 302 302 302 302 308 310 312 311 313 311 305 309 310 304 307 306 300 297 298 298 296 297 300 301 299 298 294 288 288 290 292 294 292 291 289 288 287 286 286 286
307 307 306 307 306 306 306 305 305 306 306 305 305 305 305 307 306 306 307 306 307 306 306 305 304 306 307 303 302 303 302 301 302 303 304 304 304 305 303 304 303 302 304 302 303 303 301 303 299 300 305 305 309 313 313 317 320 314 306 307 308 304 304 305 304 298 296 297 297 298 298 298 299 298 296 291 289 291 292 293 292 291 289 288 287 286 286 286
307 307 306 306 306 306 306 305 306 306 306 305 305 306 306 306 306 306 306 306 306 306 306 305 306 309 306 302 303 302 301 301 302 303 303 304 304 304 303 303 300 301 307 304 302 304 302 304 304 306 310 308 311 318 316 314 313 309 306 308 308 304 302 304 305 299 296 298 298 298 297 297 297 296 297 295 292 292 293 292 292 291 290 289 288 287 287 286
306 306 306 306 306 306 306 306 306 306 306 306 306 306 306 305 305 306 305 305 308 308 308 305 305 309 305 302 301 301 301 301 302 302 302 304 303 303 302 301 301 303 308 307 304 305 305 308 309 309 310 306 307 314 313 306 305 304 302 303 306 304 302 303 303 299 296 299 298 297 298 298 297 296 296 295 293 292 292 290 290 290 289 288 288 287 287 287
306 306 306 306 306 305 306 306 306 306 306 307 307 307 309 310 310 311 308 305 305 303 303 304 303 304 304 302 301 301 301 301 302 302 302 303 302 303 302 301 309 309 307 308 304 302 304 311 312 312 313 307 303 305 303 300 300 301 301 301 302 301 301 302 301 298 295 298 301 299 298 297 296 296 295 295 295 292 291 290 290 289 289 289 288 288 288 287
306 305 305 305 306 306 307 307 306 306 306 307 307 306 310 310 308 310 308 303 301 298 300 302 299 302 302 301 301 300 301 302 302 301 302 303 302 303 303 305 313 310 304 305 304 303 308 312 310 311 311 304 302 301 300 300 300 300 301 302 302 300 302 300 298 297 296 297 301 299 296 296 296 296 296 295 295 294 292 291 290 290 289 289 288 288 288 288
305 306 306 306 307 308 308 308 307 306 306 307 308 308 309 308 305 305 306 306 303 299 300 299 299 303 301 300 301 299 302 306 303 302 302 302 304 304 305 311 313 307 305 307 308 311 314 309 304 303 302 300 300 299 300 301 302 301 301 301 304 302 302 301 297 296 296 296 299 297 296 297 297 296 296 294 295 295 293 291 291 291 290 289 289 289 288 288
305 306 306 307 307 308 308 308 308 307 307 308 309 308 307 307 306 304 305 309 306 301 302 303 303 305 304 302 302 300 305 306 304 304 301 303 307 305 308 317 315 309 310 312 309 310 310 307 301 297 298 300 300 299 300 300 301 301 301 301 305 302 300 304 301 296 296 295 296 296 295 297 298 299 299 294 292 293 292 291 290 289 290 290 289 289 288 288
306 305 306 306 306 307 308 308 309 308 308 309 308 307 307 307 307 306 308 309 306 304 303 302 301 303 304 303 301 303 306 303 303 304 300 303 307 304 307 312 312 310 309 308 310 310 305 301 296 296 299 300 300 299 298 299 301 303 301 301 304 301 298 301 299 295 297 295 294 296 300 303 303 304 305 297 292 294 292 292 294 290 289 289 288 288 288 288
306 305 306 306 305 306 306 307 308 308 308 308 307 307 307 308 307 306 310 310 307 307 303 300 301 301 301 302 302 302 304 302 302 301 299 302 304 305 305 303 305 308 307 303 305 308 303 296 295 299 299 298 300 300 299 298 301 306 305 300 300 300 297 298 297 296 301 302 296 295 304 312 308 306 307 301 297 299 296 296 301 298 291 289 290 290 289 288
305 306 306 305 306 305 306 309 308 307 308 307 307 307 307 310 308 304 312 316 312 310 306 302 302 302 301 302 302 301 305 305 300 298 299 300 300 302 303 302 301 304 307 304 302 303 300 295 294 299 300 299 299 300 299 299 302 306 304 298 297 297 297 297 297 298 303 304 296 294 303 309 307 305 304 299 299 302 300 300 304 304 298 294 292 292 291 290
305 306 306 305 306 305 306 309 309 308 308 307 307 306 305 308 306 304 313 318 310 306 306 304 303 303 303 300 300 303 306 305 300 299 299 298 299 300 303 306 303 304 304 303 306 304 298 296 296 298 299 299 299 301 300 300 305 306 300 296 297 297 297 297 296 298 300 299 297 296 298 303 306 306 300 295 300 304 305 307 308 307 307 303 298 295 293 293
305 305 306 306 305 305 305 306 307 308 308 308 306 305 306 306 305 309 314 310 305 306 306 305 303 303 304 300 299 306 306 302 303 302 297 297 299 301 307 308 306 308 302 302 312 309 297 299 300 298 300 300 300 302 300 299 301 302 297 295 296 295 296 296 297 300 298 298 304 300 296 302 309 306 300 297 301 306 308 310 312 311 310 310 306 301 296 293
305 305 305 305 305 305 305 305 306 307 309 309 305 305 307 303 306 316 315 305 304 306 305 304 303 302 304 302 302 307 304 302 306 303 297 298 298 301 305 305 306 308 300 301 313 309 298 298 299 298 301 302 301 299 297 298 299 297 295 295 295 294 296 296 298 301 299 301 309 302 296 303 309 306 304 301 303 309 311 311 313 312 308 307 306 304 298 293
305 306 305 305 306 304 305 306 306 308 309 307 306 307 305 306 319 323 312 306 305 305 305 304 304 304 306 305 305 307 304 304 306 303 301 300 300 303 300 299 305 307 304 305 307 303 297 296 297 299 299 299 299 296 294 297 297 295 295 297 297 296 295 296 298 299 302 308 310 300 295 301 307 307 306 306 307 310 310 309 309 308 306 304 302 301 298 295
305 305 304 305 305 305 307 307 306 308 309 307 305 305 305 311 325 320 304 305 307 305 306 305 306 308 309 306 306 308 306 306 306 305 305 303 306 310 303 303 308 309 317 318 306 301 298 297 300 300 298 296 296 296 293 293 295 296 298 300 302 303 299 300 303 302 306 314 307 298 296 299 303 307 307 307 307 305 305 305 305 305 304 303 301 299 297 295
305 305 305 305 305 306 307 307 308 307 307 307 303 309 317 313 315 315 308 308 307 307 307 305 306 308 308 304 304 306 305 306 306 306 306 304 307 309 303 307 310 309 322 321 309 309 306 301 299 297 296 295 296 300 297 295 297 299 302 305 309 313 309 309 311 308 311 311 299 295 298 299 301 303 304 305 305 303 302 302 302 302 301 301 299 298 296 294
304 305 305 305 306 306 307 307 308 307 306 307 305 315 327 319 312 312 312 310 305 305 305 304 304 305 305 305 303 302 301 303 305 304 302 301 304 303 298 300 303 304 312 309 307 316 314 305 299 297 298 294 295 302 303 301 300 300 304 309 311 312 312 315 313 308 309 306 296 293 297 301 304 304 303 304 304 302 300 299 299 298 298 298 296 294 292 291
304 305 304 306 306 305 307 306 306 306 305 307 311 315 315 315 313 308 311 314 306 303 304 304 304 303 302 304 303 301 302 303 302 302 303 302 304 305 302 298 297 304 311 307 304 309 312 309 302 299 299 294 294 298 299 301 300 298 297 301 307 310 309 312 312 311 310 306 298 294 299 308 311 305 302 301 301 300 299 298 298 298 296 294 292 292 292 293
305 304 304 306 305 305 306 305 305 306 305 312 321 317 312 315 314 309 314 315 306 304 304 300 302 304 305 306 303 300 301 303 302 302 304 304 305 307 305 300 298 303 309 309 307 304 306 308 301 295 295 293 295 295 293 299 301 296 294 298 305 308 308 307 305 305 303 302 302 299 302 308 305 301 302 301 302 303 303 303 301 301 299 295 295 296 295 295
304 303 305 305 304 305 305 304 306 304 307 320 321 315 321 320 308 307 311 307 304 305 305 305 305 305 308 308 305 303 300 300 302 303 304 304 304 304 303 300 298 299 302 306 310 305 306 308 299 295 295 292 294 294 292 298 302 297 297 302 300 297 303 305 300 297 296 301 305 301 303 305 301 303 306 304 304 304 304 303 301 300 299 297 297 297 296 295
304 303 304 304 304 305 304 305 307 305 311 321 315 313 321 313 301 306 308 302 302 302 302 310 310 305 307 306 307 308 302 300 303 304 305 305 303 302 303 299 295 296 298 300 304 304 306 308 300 295 297 294 291 293 293 294 298 299 300 301 296 293 300 304 301 302 303 306 305 300 304 305 302 306 307 304 304 302 301 300 298 298 297 297 297 296 296 295
303 303 303 303 305 304 305 307 305 307 315 316 312 314 314 306 301 304 305 301 301 301 302 308 306 303 306 307 308 306 301 305 309 306 305 306 303 301 303 301 296 295 295 296 302 303 303 308 304 294 296 296 291 293 297 293 292 297 298 296 296 299 304 303 302 306 307 306 305 303 304 302 301 307 306 303 303 301 300 299 297 297 296 296 296 295 295 295
305 307 306 304 304 304 306 307 306 311 316 313 316 315 306 304 304 302 302 301 301 303 305 305 302 302 305 307 309 304 300 305 308 304 304 305 303 299 299 300 298 297 295 295 301 303 300 305 307 297 294 296 295 296 303 300 293 294 295 294 296 300 304 303 300 303 305 305 306 306 306 303 304 309 305 301 302 300 299 297 296 296 296 295 295 294 295 294
304 310 310 302 303 307 305 306 313 319 313 310 318 314 302 303 304 299 299 301 301 302 304 303 302 302 305 306 305 302 301 303 303 303 304 303 303 301 298 298 299 298 296 294 298 302 301 302 308 303 295 297 300 299 303 305 300 299 299 299 298 297 299 299 297 299 303 305 305 305 305 303 303 305 303 301 301 299 297 296 295 296 296 296 295 295 295 294
304 312 312 303 303 306 305 308 316 316 312 310 310 307 304 304 302 300 299 298 299 300 300 302 302 302 305 304 301 301 304 305 303 303 304 303 303 302 298 295 298 297 296 297 298 300 301 301 307 307 301 303 304 297 294 298 300 302 304 304 303 301 301 302 300 298 298 301 303 303 303 301 301 303 302 300 299 297 296 296 296 296 296 295 295 295 295 294
309 312 308 303 303 305 308 312 307 303 311 311 305 303 305 304 301 301 300 298 299 299 297 300 302 302 305 304 301 302 304 307 305 303 304 303 301 301 297 291 294 295 297 299 297 297 300 302 304 305 303 302 298 291 291 294 295 297 298 298 300 302 303 305 305 301 297 297 297 297 299 300 301 303 301 298 297 297 296 296 296 296 295 295 295 295 295 294
315 312 304 302 304 305 309 311 304 304 312 306 298 301 302 302 302 301 301 301 301 299 300 302 302 302 303 301 301 302 302 304 306 305 305 304 301 298 293 290 293 294 297 299 297 296 299 301 302 304 305 300 294 291 293 293 292 295 296 295 296 299 300 302 301 298 299 300 297 297 299 300 301 303 300 297 297 296 296 296 296 295 295 295 295 294 294 294
315 308 304 303 303 305 310 311 307 309 314 306 302 303 301 299 301 301 302 303 302 301 303 304 302 300 302 300 300 301 300 302 304 301 301 304 302 295 290 291 293 294 296 298 298 296 299 304 304 304 306 304 300 301 301 297 295 297 297 294 293 295 296 296 294 293 297 300 299 299 301 300 300 301 298 297 297 296 296 296 295 295 295 294 294 294 294 294
309 305 308 308 303 303 308 312 313 315 318 314 308 306 304 301 300 301 302 302 301 301 303 303 300 300 301 300 300 301 300 300 302 300 299 301 300 294 292 294 294 297 297 295 296 296 299 303 302 303 306 305 305 308 306 303 300 297 295 294 293 294 295 297 297 297 298 299 298 300 301 298 298 299 297 296 296 296 295 295 295 294 294 294 294 293 294 294
306 308 313 312 307 306 303 303 312 319 318 315 308 303 305 305 301 298 299 300 300 300 301 301 299 299 300 299 301 304 302 299 299 299 301 303 300 296 293 294 294 296 296 294 295 298 299 298 299 303 306 304 304 304 300 299 299 297 297 297 296 294 293 296 299 299 299 298 297 298 298 297 297 297 296 296 295 295 294 294 294 294 294 294 294 293 294 293
306 307 309 308 308 310 306 304 311 314 308 307 304 302 304 305 302 298 297 298 300 299 299 299 298 300 301 301 303 304 302 300 299 298 300 302 300 295 291 292 293 293 294 294 295 297 300 299 299 301 303 301 300 299 296 295 296 295 296 297 298 296 293 294 297 298 298 298 297 297 297 297 296 296 295 295 294 294 294 293 293 293 293 293 293 294 294 293
303 305 303 301 303 307 305 305 311 312 304 303 303 302 304 306 305 304 300 297 298 298 298 300 300 301 302 301 301 302 303 302 301 301 300 300 300 298 295 293 293 292 293 294 295 298 301 300 296 296 300 300 296 295 295 294 295 295 296 297 297 295 294 294 296 296 295 296 297 297 297 296 295 294 294 294 293 293 293 293 293 293 293 293 293 293 293 293
302 305 301 298 303 308 305 302 307 312 307 305 306 303 305 309 309 305 300 299 301 298 297 302 303 302 302 301 299 302 304 303 302 302 301 299 299 301 300 297 294 292 293 295 295 295 299 302 298 294 298 299 296 295 295 294 296 297 297 298 297 296 295 294 295 295 293 294 295 294 294 293 293 293 293 293 293 293 293 293 293 293 293 293 293 293 293 293
305 306 303 303 306 307 304 302 305 308 304 302 305 303 304 310 310 303 299 300 303 300 297 301 303 303 303 301 299 302 304 301 299 299 300 299 300 302 301 299 298 296 295 296 295 291 294 300 298 295 298 300 299 297 296 295 296 296 298 300 298 297 297 294 294 295 294 294 294 293 293 293 293 293 293 293 293 293 293 293 293 293 293 293 293 293 293 292
303 300 302 311 310 304 305 304 302 306 306 303 304 303 304 308 307 303 301 300 302 302 300 302 305 304 301 300 301 304 302 299 297 297 297 297 299 300 298 296 300 303 299 295 293 293 294 297 295 296 300 302 301 299 296 295 294 295 299 301 298 297 297 296 296 297 296 296 295 295 295 295 294 293 293 293 293 293 293 293 293 292 293 293 293 293 292 292
302 298 300 309 306 302 305 306 301 303 306 307 306 303 304 307 304 301 302 303 300 300 299 301 304 302 302 304 304 302 298 295 295 294 293 294 296 297 296 294 297 303 302 297 293 292 294 297 297 296 300 304 302 297 295 296 297 298 298 297 296 295 296 297 297 296 295 295 295 296 295 294 293 293 293 293 293 293 293 292 292 292 293 293 292 292 291 292
Wind_Speed
11 11 11 11 10 10 10 10 11 10 9 8 6 5 4 4 4 5 5 5 6 7 9 10 9 6 6 7 10 9 9 13 22 30 24 17 23 19 16 16 11 9 7 6 6 4 6 10 9 8 7 8 6 3 4 4 3 4 3 3 0 3 3 5 7 6 3 3 5 4 5 6 3 2 1 1 2 1 2 4 4 5 8 10 10 11 9 6
11 10 10 10 10 9 9 8 9 9 8 7 6 4 3 3 3 3 3 3 4 6 11 13 11 7 7 7 8 8 7 10 22 28 22 21 24 17 15 15 7 7 7 5 6 5 5 4 5 9 7 4 4 4 3 4 5 3 3 2 2 4 4 4 7 6 2 3 5 4 3 4 4 4 3 2 2 1 3 5 3 6 10 11 10 9 7 14
10 9 9 8 8 9 8 8 8 7 6 5 5 4 3 3 2 2 1 2 3 4 9 15 15 9 7 6 6 6 5 9 16 16 20 24 23 17 17 14 6 7 6 5 6 8 8 5 6 8 5 4 3 4 4 4 4 1 3 2 4 4 3 2 5 6 2 4 7 4 3 2 3 4 4 3 2 3 6 6 4 7 13 10 6 7 11 18
9 9 8 6 7 8 8 8 7 6 4 4 4 3 3 3 1 2 1 1 1 3 5 10 17 17 14 10 6 4 2 8 7 11 20 23 22 18 16 13 8 8 6 6 8 10 11 10 12 9 5 4 4 4 4 4 2 2 3 2 3 2 2 0 3 4 2 4 6 5 4 2 3 3 3 4 2 4 8 9 10 12 13 9 6 11 16 19
8 8 7 5 5 7 8 8 6 4 3 3 3 3 4 3 2 2 1 1 1 1 3 6 11 15 17 17 8 3 1 6 5 14 20 20 22 18 14 13 9 7 6 7 8 8 8 9 10 8 5 4 5 5 3 3 2 4 2 2 3 2 3 1 1 3 3 5 6 6 4 3 3 2 4 7 6 6 6 8 11 11 9 8 10 15 17 18
8 9 8 6 5 6 7 8 6 4 2 3 2 4 6 4 3 3 1 3 3 3 5 6 7 11 14 16 10 4 5 3 7 16 18 18 21 17 12 12 8 6 5 7 6 5 6 9 8 5 4 3 4 4 1 5 2 4 1 1 2 2 3 0 1 2 3 6 5 5 3 3 4 3 3 8 12 9 4 4 7 8 7 9 13 16 15 18
7 8 9 9 7 6 6 7 7 5 2 2 2 6 6 4 4 5 2 4 5 4 6 7 7 11 14 10 9 11 8 2 11 16 16 16 18 16 10 8 7 4 2 5 5 5 5 8 6 3 5 4 1 2 2 5 4 6 2 1 2 1 2 2 1 2 3 5 3 3 2 3 5 4 1 7 16 10 5 3 4 7 8 10 11 14 17 20
6 7 8 9 9 7 7 8 7 5 3 1 4 6 4 3 5 5 4 2 3 3 5 5 7 11 12 4 4 8 5 3 14 16 14 15 15 16 10 6 8 3 5 8 5 5 5 7 5 4 4 3 2 2 3 4 6 5 3 2 1 3 2 2 2 3 3 3 1 2 3 4 5 2 1 10 16 9 6 4 3 4 6 10 10 13 18 20
6 6 6 7 8 8 8 8 7 6 4 1 4 4 2 3 5 7 9 7 6 7 6 5 9 11 5 3 6 5 3 5 13 14 13 14 13 16 12 10 9 4 9 10 6 5 3 2 4 5 5 3 4 3 3 3 2 2 3 2 3 3 2 2 3 4 4 2 2 2 4 4 2 2 6 13 12 5 6 4 4 5 6 8 8 12 19 20
4 5 5 5 6 6 7 7 6 4 3 3 4 4 1 2 6 8 10 11 9 9 8 6 10 12 3 3 7 5 3 6 10 11 12 15 14 17 18 14 9 6 10 12 11 8 3 6 7 7 8 4 3 3 3 3 2 2 5 4 5 2 2 2 2 1 2 1 1 2 5 4 1 2 6 8 3 3 6 4 3 5 7 7 6 11 19 21
3 4 4 4 4 4 4 4 4 3 3 4 4 2 0 1 4 6 8 10 10 9 7 6 8 10 11 9 7 4 3 6 8 10 12 16 19 21 23 17 10 12 16 16 14 11 10 14 12 8 4 3 3 4 4 2 2 3 4 3 5 5 2 1 1 1 1 1 3 4 5 3 2 2 11 7 1 3 6 6 5 6 7 7 6 9 14 21
2 3 3 3 4 3 3 3 2 2 3 4 2 1 2 1 3 4 6 8 10 9 7 8 5 2 12 14 6 2 5 6 6 9 10 15 22 22 22 19 15 15 16 15 10 9 12 10 10 8 1 4 3 3 2 2 3 2 3 2 5 7 3 3 0 0 1 1 4 3 5 4 4 8 15 4 3 2 3 6 6 6 6 5 6 6 10 20
2 2 3 2 3 3 3 3 3 3 3 3 0 2 2 0 2 4 6 7 8 8 7 10 7 0 6 6 2 3 5 6 5 6 9 11 15 17 19 19 19 18 17 18 12 10 10 8 15 11 2 6 3 0 4 3 3 0 3 3 2 6 4 4 1 1 1 1 1 0 5 6 7 14 13 1 4 3 2 7 6 6 5 4 5 4 8 16
2 2 2 2 3 4 4 4 4 3 3 3 1 1 1 1 2 4 6 7 7 6 4 8 7 5 7 2 0 5 4 5 5 5 10 11 9 10 14 15 18 19 19 21 18 15 14 15 20 12 3 5 3 1 4 5 3 0 2 2 2 3 4 4 1 1 1 1 3 3 4 8 7 11 9 2 4 4 5 8 6 6 5 4 5 5 7 13
2 2 2 2 3 4 4 5 3 3 3 3 2 0 0 1 2 4 5 6 6 6 3 5 5 5 7 2 0 4 4 5 8 10 13 13 10 6 8 11 13 15 15 16 15 14 13 13 14 7 2 3 3 5 4 4 3 2 1 3 2 1 4 6 2 2 2 1 3 2 4 9 9 7 4 1 4 5 7 9 7 8 7 6 5 6 7 10
2 2 2 2 3 3 4 4 2 3 3 3 2 1 1 2 1 3 4 4 5 5 3 4 7 6 5 1 1 4 5 7 10 10 10 13 13 8 5 7 8 8 9 10 9 9 12 12 7 3 2 2 4 5 3 3 3 3 1 2 3 2 3 6 3 1 0 1 2 1 4 8 7 5 1 2 5 5 7 10 10 9 8 7 5 6 6 7
2 3 3 2 3 3 3 3 1 2 3 3 4 3 2 2 2 2 3 3 2 3 4 4 6 7 4 1 2 3 5 6 9 9 8 10 12 10 7 4 4 5 5 8 8 7 10 9 2 0 3 3 3 4 4 3 4 3 2 1 3 2 2 4 4 2 2 0 3 2 6 13 13 9 4 2 5 6 7 12 11 9 8 7 6 6 6 7
3 3 3 2 3 3 2 2 2 2 4 5 6 5 4 4 4 3 3 4 5 3 4 5 6 6 2 3 1 3 6 6 8 9 9 8 8 9 10 7 4 5 4 5 8 7 6 5 2 2 3 4 3 4 2 2 3 2 2 2 3 2 2 4 4 2 2 1 4 3 8 17 18 15 11 5 7 8 11 12 10 10 9 7 7 6 7 8
3 3 2 2 2 2 1 1 2 2 3 4 4 3 2 2 4 6 8 5 1 1 1 2 4 3 1 3 3 5 5 4 6 9 11 9 7 5 8 9 4 4 4 1 5 6 3 3 3 2 0 1 1 4 4 4 4 4 4 3 3 4 4 5 5 3 0 2 6 7 10 16 17 16 13 8 8 10 12 10 9 10 8 7 6 6 8 7
3 3 2 2 2 0 0 2 2 2 3 2 3 4 2 2 3 4 10 10 3 1 2 2 2 2 1 3 6 6 2 2 5 10 14 12 6 3 5 8 6 6 4 1 3 3 3 3 1 3 4 5 4 4 4 3 4 4 3 2 4 4 5 5 3 3 1 1 7 7 9 17 18 17 14 7 7 9 10 8 9 9 8 8 8 8 10 9
3 4 2 2 2 2 2 2 2 2 3 1 4 4 2 1 2 1 2 4 1 1 3 3 3 1 0 3 7 6 1 1 5 12 17 11 5 2 3 6 6 4 3 2 3 3 5 3 4 6 6 5 3 4 5 5 4 4 3 2 3 3 6 5 1 3 1 1 5 3 8 19 18 14 11 5 6 8 9 8 9 10 9 8 9 12 12 10
4 5 4 4 4 3 3 3 2 3 4 2 4 3 3 3 2 3 3 2 1 2 3 2 2 2 2 2 6 7 2 3 5 11 16 12 6 2 2 6 5 0 3 2 2 5 4 2 5 3 5 5 5 4 5 5 4 3 2 1 3 3 5 5 2 2 1 1 5 5 8 18 19 13 9 4 5 6 6 8 8 8 9 9 9 11 10 10
6 6 7 7 8 7 7 6 4 3 3 2 3 2 4 4 5 3 3 3 1 2 3 3 3 3 3 2 4 6 5 3 2 7 15 12 5 2 3 5 4 1 5 4 2 1 1 4 3 2 5 7 5 4 5 4 2 1 2 1 4 3 2 3 3 3 3 2 4 7 7 12 14 9 6 3 4 4 4 6 7 6 9 10 9 7 9 11
7 5 6 7 9 10 9 8 6 3 2 2 4 5 6 5 4 2 3 2 1 2 2 1 1 1 1 2 5 4 3 2 1 5 13 9 3 1 3 4 3 2 3 2 5 4 3 3 1 4 4 6 4 1 3 2 2 2 4 4 4 3 2 4 3 6 5 1 2 7 6 5 6 5 5 3 2 4 3 4 7 7 9 9 8 9 11 12
5 2 3 5 8 11 8 7 10 9 6 6 8 7 5 3 1 2 3 3 1 3 2 1 0 1 1 3 7 2 3 1 0 3 9 6 2 0 2 2 1 2 2 1 4 2 2 2 2 4 4 4 3 2 3 4 2 4 4 6 5 2 2 4 5 6 5 3 2 5 5 4 4 4 6 4 5 6 3 3 8 7 7 7 8 11 11 11
5 2 2 5 7 11 7 3 5 4 4 5 7 5 2 2 2 2 3 4 2 4 3 1 1 1 1 5 7 1 2 2 2 3 5 5 1 2 2 1 2 1 4 3 1 1 1 1 2 4 4 4 3 2 5 5 2 4 3 5 5 2 3 5 4 3 2 4 3 3 1 5 6 6 6 4 6 9 6 5 9 8 6 6 8 10 9 9
7 4 3 7 9 10 6 2 3 2 2 2 5 2 1 2 3 2 3 4 2 2 1 1 0 3 1 3 5 1 0 4 3 2 4 4 3 1 1 2 0 1 3 2 1 2 3 3 2 4 5 4 2 3 5 7 4 3 3 3 2 2 5 3 1 1 1 3 3 3 1 2 6 6 4 4 6 9 8 7 8 7 7 7 8 9 9 10
8 7 6 7 8 8 5 4 4 3 2 3 5 1 1 0 2 1 4 3 2 1 1 2 0 3 2 2 3 3 1 3 1 2 4 4 3 2 2 3 5 3 1 3 3 4 2 3 4 4 4 2 4 4 5 7 2 4 4 2 1 1 2 2 4 2 1 2 3 4 2 0 6 6 2 3 4 6 7 7 8 7 7 7 8 9 9 10
6 6 5 6 7 7 5 5 4 3 2 3 5 2 3 3 3 3 5 1 1 1 0 1 0 2 4 3 4 4 1 2 1 3 5 3 2 4 2 2 6 5 1 1 4 4 1 3 5 6 4 4 4 2 5 6 1 3 4 2 2 4 2 3 4 2 2 2 3 4 3 1 5 6 3 2 2 4 7 7 7 7 7 7 7 9 9 8
3 4 5 6 6 6 5 4 3 3 2 3 5 3 4 3 3 6 2 2 0 1 1 1 1 3 5 4 4 4 2 2 3 4 4 1 2 5 3 2 5 6 1 4 1 3 1 1 2 3 2 4 3 1 3 4 2 1 2 1 2 3 3 2 1 3 3 2 4 5 2 2 3 6 3 2 3 4 4 6 7 7 7 8 7 7 8 7
2 4 5 6 5 4 3 3 2 2 1 3 5 3 4 3 5 5 2 3 0 1 1 2 2 4 6 2 3 4 3 4 5 4 3 2 3 5 4 0 3 4 3 4 2 4 3 1 1 1 1 3 4 2 1 0 2 2 2 2 3 3 3 3 3 3 2 3 4 4 3 2 2 6 5 5 6 5 4 6 9 10 10 9 8 7 7 6
3 2 3 3 2 2 1 1 2 1 2 3 2 2 4 2 1 1 3 3 2 2 1 1 2 3 5 2 1 3 3 3 4 4 2 2 2 2 2 1 1 3 4 2 2 5 2 3 2 2 0 2 3 0 3 3 3 3 3 3 4 4 4 3 3 1 1 3 2 2 3 1 5 8 9 10 11 7 5 6 8 9 10 11 10 9 8 7
4 3 2 1 1 1 1 1 1 2 4 2 2 4 6 4 1 3 2 3 1 2 1 0 2 1 2 3 2 2 2 2 3 4 1 0 2 2 1 2 2 1 2 2 2 4 4 4 2 1 1 1 2 2 1 2 2 3 1 3 2 2 4 5 4 3 3 3 2 2 2 3 5 5 8 11 11 7 4 5 7 7 9 11 11 10 10 10
6 5 3 4 5 4 3 2 2 5 4 2 4 3 3 0 3 2 2 3 2 2 1 1 2 2 1 1 2 2 1 1 2 3 1 2 2 2 2 2 1 3 3 1 0 1 1 4 1 1 1 1 1 2 2 2 2 1 2 3 2 3 1 4 3 3 5 4 3 3 1 3 4 4 3 6 7 6 4 5 5 5 7 8 9 10 10 10
6 6 6 7 8 6 4 3 3 4 2 4 6 4 2 3 3 2 2 4 1 2 1 1 2 3 3 2 2 1 0 2 2 2 2 1 2 2 2 2 1 3 4 1 2 1 1 4 2 1 2 1 1 1 2 4 2 1 1 3 1 3 3 1 3 3 2 3 3 2 3 5 4 6 6 3 4 5 5 4 5 7 7 5 7 9 8 8
4 4 6 8 8 5 3 3 3 2 2 5 6 3 3 4 1 3 3 1 1 1 1 3 3 2 4 4 3 3 1 2 2 2 2 2 3 3 2 2 2 1 3 2 2 0 1 4 3 2 2 2 1 2 1 1 0 0 1 1 3 3 5 2 2 1 3 1 4 1 4 6 3 5 7 7 8 9 8 8 7 8 9 7 7 9 8 9
3 4 5 7 7 4 2 2 2 2 4 6 4 2 4 2 1 3 2 1 0 1 3 3 2 0 2 3 3 3 2 2 2 2 2 2 1 2 3 1 1 1 1 1 2 1 1 4 4 1 0 1 1 2 2 2 1 3 1 3 2 2 4 4 1 4 3 3 4 1 5 5 3 4 6 9 11 12 11 10 10 11 11 11 11 11 12 11
3 4 5 6 5 2 2 2 2 3 5 5 1 3 3 1 1 1 2 1 0 2 4 1 3 1 1 1 3 3 2 2 2 2 2 2 1 2 3 1 0 1 1 1 0 0 2 2 5 0 2 3 2 2 2 3 2 2 3 2 2 1 1 1 0 2 2 4 5 3 5 4 2 4 5 9 10 11 11 11 14 16 15 13 13 14 15 14
3 3 3 3 3 2 2 2 2 4 5 2 2 3 1 1 1 1 2 1 1 3 2 2 2 1 2 3 3 2 1 2 2 1 1 2 1 1 3 2 1 1 2 1 2 1 2 1 4 3 2 2 2 1 2 1 3 3 1 2 2 2 3 1 1 2 1 4 5 4 5 3 4 5 3 8 9 7 9 11 13 15 14 12 12 12 14 13
3 2 1 2 3 1 2 2 4 5 4 2 4 2 1 1 1 1 1 1 1 2 1 2 1 1 2 3 2 1 0 1 2 1 2 2 2 1 1 1 2 2 2 2 2 0 2 2 3 4 2 1 1 2 4 4 2 2 1 1 1 0 1 0 0 2 2 2 3 3 5 4 3 4 4 8 7 5 8 12 12 13 15 13 12 12 13 12
3 2 2 2 2 1 3 5 5 3 2 2 2 1 1 1 1 0 2 1 1 1 1 3 3 2 2 2 2 1 1 1 2 2 3 2 1 1 1 2 1 2 1 1 1 0 1 3 3 3 3 3 3 1 2 4 5 4 3 3 3 2 2 0 3 1 2 2 4 2 8 8 3 4 4 4 4 6 11 13 13 14 16 15 13 13 13 13
4 1 3 3 1 1 4 5 2 1 3 1 1 1 0 1 2 1 1 2 2 2 2 1 2 3 2 2 1 2 2 2 2 2 3 3 3 2 1 2 2 1 2 1 2 2 2 3 1 4 5 3 1 2 2 2 5 5 2 2 3 3 4 3 4 3 0 2 2 2 4 7 4 4 2 2 5 10 12 12 13 15 15 16 15 15 15 14
3 2 1 4 2 1 5 3 2 2 0 2 1 1 0 1 1 1 1 1 1 1 1 0 2 2 2 1 1 2 3 3 3 4 3 3 2 1 2 3 3 1 2 1 1 1 1 2 1 4 5 3 3 3 3 3 5 3 1 1 3 2 3 4 4 2 2 2 1 1 4 5 4 3 1 6 10 11 11 12 14 15 16 17 17 17 16 15
2 2 1 5 3 1 3 1 1 2 3 2 2 1 1 0 1 1 0 1 1 2 1 1 2 1 1 1 1 2 3 2 2 2 1 2 2 2 3 4 3 2 2 1 2 0 1 0 1 3 6 6 5 5 5 4 2 1 2 0 2 3 4 3 1 2 0 5 5 5 7 5 4 5 7 10 12 12 12 12 13 14 16 17 17 17 16 16
2 0 2 4 5 4 2 3 4 2 1 1 2 2 2 1 1 1 1 2 2 3 2 1 1 1 1 1 1 2 3 2 2 2 2 1 2 2 3 3 2 1 0 2 1 0 1 1 1 1 2 4 5 5 3 2 1 0 1 1 2 3 4 2 1 2 2 5 5 4 8 10 9 10 11 11 12 13 14 14 13 14 14 15 15 15 15 16
1 1 2 4 6 6 3 1 4 4 2 1 1 2 1 0 1 1 1 2 1 2 1 1 0 1 1 1 1 3 3 2 1 2 2 2 3 2 2 2 1 1 2 3 2 3 2 0 1 5 6 7 7 5 2 1 2 4 3 3 4 4 4 4 2 1 3 2 2 6 11 16 16 13 12 13 13 14 15 15 15 14 15 15 15 15 16 15
1 1 1 1 3 3 3 3 4 3 1 2 1 1 0 1 2 2 0 1 1 1 1 0 1 2 2 2 1 2 2 1 1 1 1 2 3 3 1 2 2 4 5 3 1 4 4 2 3 5 8 10 7 6 3 2 4 5 4 6 6 3 5 5 4 6 3 1 4 8 9 12 16 15 14 15 15 14 16 17 16 16 17 17 17 18 18 13
1 2 1 1 0 0 2 3 3 4 3 1 2 1 0 1 2 1 1 1 1 0 1 1 2 4 5 4 1 1 2 2 1 2 1 1 2 3 3 2 1 5 5 2 2 3 5 2 3 2 7 11 7 8 8 4 4 3 3 8 7 4 6 7 9 10 4 2 10 13 10 12 15 16 16 14 13 14 16 16 16 17 18 19 21 20 16 13
2 2 0 1 1 2 1 1 2 5 4 2 1 1 2 2 3 4 2 1 2 1 2 2 4 4 4 3 2 1 2 1 2 4 2 1 2 1 2 1 1 3 3 2 3 1 4 3 2 2 6 11 8 7 6 3 2 3 4 7 6 5 8 9 9 10 7 9 15 16 17 16 13 13 14 12 12 13 13 15 17 19 20 22 22 18 14 17
1 2 1 2 3 2 2 2 3 4 2 1 0 1 2 4 5 3 1 2 1 2 2 3 4 2 2 3 3 3 5 4 2 4 3 1 2 2 2 2 2 2 4 2 1 1 1 2 1 3 3 9 5 4 2 4 3 4 6 4 4 4 4 5 6 6 6 9 12 12 13 12 8 9 12 12 12 12 13 17 19 19 22 23 19 16 17 22
2 3 3 4 3 1 2 2 2 3 1 0 1 2 2 4 6 3 1 2 3 3 4 5 4 1 2 2 3 6 7 5 4 5 4 3 2 2 1 1 4 2 1 1 1 1 1 1 1 4 3 6 3 5 6 1 3 2 4 5 7 5 3 3 4 5 6 9 10 7 6 7 8 10 15 16 15 15 16 17 19 20 22 20 16 18 23 25
4 3 3 4 2 1 1 1 2 2 1 2 2 2 2 3 3 2 1 1 1 2 4 6 5 2 1 1 4 6 4 4 3 3 2 2 2 3 2 3 5 4 3 3 1 1 2 3 1 2 1 5 4 6 8 3 4 1 1 5 7 7 6 5 5 7 8 6 6 6 5 9 12 14 18 21 22 21 17 16 19 22 19 15 17 23 25 24
Wind_Direction
81 86 95 100 103 110 114 109 108 110 109 102 87 80 72 85 90 89 91 88 84 54 28 10 3 0 355 358 1 7 17 38 50 44 39 10 351 346 340 342 343 6 29 37 38 47 49 44 42 48 57 50 17 340 27 24 37 49 79 81 138 172 198 189 173 190 168 174 195 203 191 161 188 223 184 86 54 285 279 280 261 270 257 245 261 281 291 214
79 80 87 98 106 114 118 113 111 107 103 94 71 65 57 66 76 74 92 95 84 45 23 9 358 336 329 334 335 353 0 26 44 36 20 5 360 353 349 354 359 23 31 49 48 65 73 29 22 49 52 41 350 359 23 3 36 69 106 89 241 193 201 199 170 177 160 143 159 176 190 176 191 171 152 200 258 238 245 262 266 278 266 252 258 265 238 191
78 78 80 90 106 118 123 118 116 109 95 80 58 53 46 42 46 48 71 102 82 44 29 24 25 16 353 333 314 330 343 34 43 15 1 6 3 357 357 2 19 30 30 67 74 85 92 85 61 60 55 47 6 14 32 12 27 89 107 109 236 202 196 233 180 181 196 137 135 159 170 189 217 157 151 202 218 204 222 233 213 241 252 241 222 208 193 186
76 75 74 81 105 120 127 128 127 117 93 76 62 50 32 23 43 42 23 161 89 41 22 25 34 37 29 12 341 285 330 46 35 337 353 3 1 357 358 5 24 36 51 97 98 93 86 76 65 60 66 49 350 22 40 352 12 87 90 156 217 173 122 278 209 192 167 125 134 142 128 215 227 158 168 167 172 239 232 225 210 217 232 225 192 186 186 187
73 66 60 68 104 124 130 134 133 126 105 85 68 23 3 4 65 69 346 243 241 340 346 1 23 31 27 16 1 242 65 50 336 340 357 358 359 357 354 6 22 36 57 109 110 97 74 57 59 51 58 51 351 27 33 322 58 72 31 198 208 170 118 106 200 152 123 99 109 129 147 205 162 158 188 164 201 236 224 222 217 216 217 200 187 187 188 194
73 62 57 62 93 124 130 133 127 123 108 87 61 355 355 359 54 64 342 265 274 292 324 329 344 0 4 9 22 79 101 76 329 348 356 355 359 359 353 360 20 35 53 119 110 87 61 40 52 47 50 54 12 49 3 312 49 87 25 277 256 198 134 116 136 141 146 113 127 164 178 150 132 248 203 180 223 227 193 208 214 223 219 200 187 183 189 199
78 66 61 65 83 113 125 126 121 115 107 86 27 354 358 13 40 38 350 288 298 306 325 329 324 333 337 355 45 59 86 69 345 351 357 0 1 3 0 359 23 26 49 115 98 92 77 51 71 101 76 67 55 88 355 327 41 85 124 305 338 97 93 318 183 140 129 121 162 178 137 150 180 241 116 207 236 228 198 212 223 236 221 197 185 185 197 204
85 74 65 66 77 97 113 120 119 121 121 82 15 357 357 42 54 42 26 337 335 2 2 0 340 327 331 349 80 50 53 332 347 354 2 5 7 12 11 16 27 30 80 80 93 121 100 70 109 148 80 72 144 100 355 359 38 71 132 202 64 49 20 350 71 66 65 92 103 122 167 218 198 212 263 239 244 228 199 202 197 213 198 190 191 196 203 209
88 83 73 67 72 84 98 108 117 130 129 72 10 353 350 67 74 67 59 61 67 59 39 24 359 343 343 92 98 62 347 325 348 359 12 13 21 26 26 36 35 71 85 67 75 105 106 119 171 168 128 142 121 70 339 37 36 98 122 149 96 34 334 24 44 38 36 41 79 137 251 270 235 272 264 246 249 216 176 174 156 161 180 199 204 204 205 212
93 90 82 68 67 77 89 98 110 121 103 50 12 351 354 89 84 74 59 52 59 60 41 28 15 13 39 91 73 76 325 346 359 12 29 25 30 35 36 42 46 85 85 64 62 58 85 154 162 138 121 119 94 40 348 78 105 110 101 102 84 27 297 51 61 84 34 328 136 217 269 280 330 311 259 251 259 141 163 177 174 172 197 210 211 212 210 216
94 97 90 68 60 66 78 87 97 96 54 27 5 338 190 101 79 58 37 37 41 47 37 19 12 30 64 74 81 95 358 3 13 28 38 35 39 40 41 46 62 89 90 74 62 61 97 130 132 119 105 92 87 42 22 89 112 83 99 96 23 354 315 59 111 161 332 271 180 203 260 257 59 265 244 252 66 145 179 191 200 202 216 216 215 223 216 222
95 98 90 74 56 44 58 69 62 43 9 10 1 196 166 114 68 29 23 36 33 38 39 21 350 6 68 66 74 74 10 10 25 38 41 41 47 47 46 52 62 78 89 82 67 77 101 123 105 85 58 115 102 42 76 100 84 67 73 94 334 357 341 274 105 116 287 199 183 207 282 251 168 227 245 252 88 149 186 212 220 219 229 225 222 231 225 230
107 89 71 68 48 31 37 41 26 7 359 15 45 164 163 168 29 359 11 24 21 34 44 32 21 177 79 65 37 35 21 18 27 42 44 43 50 53 52 56 64 68 79 84 77 83 99 110 97 94 89 101 105 249 117 65 54 350 38 82 322 357 327 276 55 50 211 153 154 34 299 267 211 234 250 238 119 141 212 235 235 229 236 234 229 237 237 236
116 87 58 48 38 31 25 32 38 32 28 23 21 138 159 277 328 341 6 15 15 27 38 31 37 87 82 105 264 37 29 29 30 27 32 35 45 61 60 59 67 68 73 81 81 82 94 97 92 94 69 81 128 114 57 18 29 29 13 53 15 356 288 286 67 129 159 100 44 76 267 273 262 253 256 221 156 162 229 244 241 239 242 238 235 237 245 241
122 101 52 30 29 34 30 39 52 50 39 17 17 76 3 337 320 345 6 8 16 27 52 36 32 88 81 73 204 39 35 36 30 25 24 28 36 52 63 65 67 65 67 74 79 76 79 86 78 77 65 28 79 84 40 359 18 30 346 309 346 166 269 305 311 165 181 339 26 93 246 277 278 272 279 193 166 180 232 250 247 245 245 242 243 239 246 251
110 76 31 22 28 39 44 46 42 38 38 34 63 86 53 60 16 13 13 9 27 32 63 47 32 79 94 69 94 35 28 24 16 19 25 32 36 30 48 76 65 56 62 60 70 65 53 65 64 64 111 46 65 85 50 21 356 358 53 265 271 211 286 319 337 45 22 6 349 229 248 281 274 268 341 123 180 198 233 252 251 248 247 244 244 241 247 259
80 46 20 28 35 36 46 49 50 56 60 71 91 94 83 72 10 352 341 355 11 8 50 64 50 78 83 36 89 5 351 1 3 13 26 33 33 29 39 69 41 29 52 43 41 36 30 47 84 17 66 53 71 89 48 4 307 323 27 268 256 230 267 306 317 353 32 84 259 231 240 262 265 264 269 181 195 207 231 247 249 249 249 245 244 247 248 252
55 37 24 32 26 21 39 72 126 112 92 92 97 100 100 86 50 18 313 282 262 304 42 49 50 83 45 353 25 317 312 334 1 15 20 19 17 25 38 43 13 2 18 25 26 26 16 28 75 61 33 13 31 87 91 254 229 225 258 265 297 287 235 268 282 288 41 307 254 251 257 263 269 271 267 233 201 214 237 243 249 253 250 249 248 247 248 249
41 41 45 39 17 8 74 169 170 127 111 100 87 88 102 79 57 42 37 38 319 314 81 4 35 106 265 316 313 313 316 338 7 19 17 12 3 15 38 33 25 30 38 24 14 22 26 32 49 68 45 292 127 133 159 197 168 176 206 186 245 281 262 243 256 253 163 301 263 244 258 269 277 280 276 251 209 221 244 247 250 254 251 251 249 246 250 248
60 82 98 70 45 319 287 271 239 159 134 104 22 1 5 20 12 7 31 43 52 96 110 176 116 93 327 316 323 325 326 16 28 27 17 7 2 11 23 20 28 45 54 202 324 2 72 75 183 210 200 204 206 161 119 115 124 128 130 157 227 257 276 260 268 281 161 298 264 239 266 279 280 280 280 264 219 227 245 248 251 251 248 248 247 251 250 246
99 112 102 80 62 354 334 291 256 205 191 244 359 22 123 142 33 325 16 33 309 20 70 153 162 69 334 292 330 335 292 75 28 25 17 5 12 13 339 19 45 38 9 248 269 348 64 98 224 220 196 179 166 137 97 84 90 92 133 216 261 233 256 264 295 300 350 341 269 280 303 289 284 284 284 259 214 231 234 233 246 248 248 251 248 253 254 255
116 118 104 88 69 39 16 335 291 225 221 284 5 59 148 192 140 147 141 101 295 348 49 85 87 359 312 278 333 346 32 49 5 6 9 7 27 31 335 42 72 96 342 342 304 3 30 224 232 206 161 110 74 88 80 79 97 86 121 195 288 251 262 290 342 331 330 289 287 338 323 291 290 295 293 254 212 237 233 225 241 246 250 251 246 252 260 267
125 113 97 80 63 46 24 360 324 242 232 309 10 99 123 116 131 146 106 98 334 344 25 47 61 349 339 350 348 9 58 62 321 334 356 6 36 60 81 69 73 70 360 13 142 92 315 258 244 144 131 101 70 61 74 80 101 142 156 201 279 287 318 287 311 333 297 254 282 304 295 283 294 308 301 261 224 263 263 239 244 241 246 252 251 255 258 262
139 108 77 58 46 35 26 26 39 78 132 113 100 126 131 114 121 133 87 87 314 341 19 22 108 113 9 359 351 19 96 93 221 315 348 13 98 66 90 115 90 64 4 34 137 157 231 263 116 103 86 92 104 79 107 129 312 264 200 212 250 276 265 241 294 330 312 312 302 304 302 281 302 327 298 291 299 286 286 271 263 243 241 255 266 262 251 250
155 115 36 22 24 19 25 48 58 70 89 109 120 124 125 118 94 89 82 71 332 317 343 343 45 131 174 359 351 9 137 70 153 294 343 23 124 73 77 135 105 127 206 125 117 155 241 259 127 103 63 77 129 225 205 185 280 308 236 213 200 199 284 288 324 341 345 352 353 354 344 297 304 305 272 298 340 308 313 300 276 260 244 243 254 258 253 250
171 145 12 353 354 2 13 41 43 54 60 93 131 142 125 100 62 65 79 60 338 298 326 346 29 9 307 347 347 36 107 341 295 312 358 21 9 150 117 305 18 154 193 148 116 196 164 16 64 115 111 103 119 260 241 168 116 319 253 180 150 102 322 314 331 359 356 306 321 38 7 277 303 297 274 322 335 306 306 287 273 272 260 236 237 252 256 255
195 205 303 323 328 349 8 1 339 339 355 119 153 169 169 98 49 39 61 40 339 281 358 290 346 26 331 313 340 69 137 309 317 2 17 12 336 89 109 260 116 162 190 131 325 265 129 89 73 105 105 108 140 255 225 146 113 276 212 134 100 319 296 289 100 135 234 285 328 15 106 242 292 283 287 337 324 308 308 289 275 270 260 248 241 247 250 253
212 232 271 302 315 331 344 342 329 323 331 182 180 217 242 290 323 15 77 54 319 76 49 302 278 27 345 313 22 69 264 316 45 313 343 17 348 25 29 217 172 175 177 144 255 271 130 155 182 152 113 152 214 227 186 144 123 253 189 138 324 297 253 163 127 159 260 351 325 324 29 114 275 277 329 357 328 311 299 280 273 269 263 261 259 258 255 257
221 246 273 292 304 318 328 333 315 303 317 190 187 247 285 296 318 53 75 136 298 55 102 338 314 325 344 358 15 31 1 359 76 298 333 30 25 38 59 192 136 126 68 121 216 240 103 206 196 152 146 214 224 225 171 156 231 231 165 114 60 72 68 90 105 129 54 13 259 282 358 34 279 290 339 6 323 277 271 267 264 267 273 273 273 274 273 275
226 257 283 294 302 318 323 324 298 278 301 199 200 260 303 324 45 63 26 246 334 2 214 6 297 321 11 16 341 0 39 343 326 327 344 27 359 31 90 172 101 111 2 7 222 232 351 281 204 140 178 200 164 83 169 184 294 325 127 29 51 55 47 62 73 97 67 323 252 260 308 81 295 292 277 232 232 217 246 286 287 287 295 288 279 277 281 287
278 284 293 301 301 302 305 321 303 263 266 201 212 283 333 3 69 89 260 249 116 338 10 32 329 10 36 38 304 349 18 334 332 357 11 355 346 19 53 51 50 61 359 359 324 296 358 25 248 279 218 136 113 69 40 308 350 39 58 10 349 342 23 31 353 47 75 275 253 254 279 126 223 271 263 250 260 234 227 275 291 300 305 300 296 290 287 289
349 335 321 309 276 274 278 285 301 265 210 198 214 8 52 50 26 165 267 309 359 333 45 356 312 26 30 355 281 334 338 320 2 51 53 2 348 2 36 200 213 359 332 315 321 325 316 232 269 316 283 110 121 265 346 358 23 47 49 45 16 340 0 359 323 344 204 238 236 265 300 252 225 249 262 269 278 271 241 251 276 292 298 297 302 305 305 303
38 32 23 27 146 136 111 167 260 166 182 181 48 43 75 83 248 227 281 326 344 333 59 257 315 43 7 327 303 317 305 271 19 51 125 15 346 324 334 202 182 20 297 256 341 349 327 291 326 25 305 49 126 178 298 324 28 39 74 95 68 20 359 318 292 306 289 253 263 299 297 279 276 268 251 255 273 286 281 266 261 268 279 287 296 301 302 300
51 47 53 72 84 90 96 101 138 155 166 82 56 52 68 87 232 207 286 275 264 353 45 116 346 6 18 302 276 292 305 285 2 33 1 3 347 300 292 269 25 79 109 118 287 107 314 295 307 141 276 1 99 179 173 138 88 63 160 128 135 152 188 275 253 272 294 294 297 306 254 223 270 306 259 240 269 299 310 286 273 270 268 277 291 295 295 296
55 56 64 74 75 79 90 112 149 159 146 64 60 70 131 235 243 181 242 254 278 344 290 167 48 20 333 315 312 327 160 275 338 29 345 330 200 216 233 241 235 102 117 153 263 157 182 263 266 294 285 77 108 218 127 99 78 261 153 103 169 178 156 218 205 195 281 326 296 257 235 226 243 299 306 305 319 341 342 329 338 324 303 298 300 299 299 299
52 56 60 67 69 72 89 129 158 144 89 75 65 77 186 222 227 171 206 232 88 203 314 356 47 39 316 316 340 0 33 256 319 2 299 245 217 208 192 216 222 151 132 160 226 157 357 278 294 334 327 67 169 227 84 55 212 136 109 185 218 171 116 112 276 13 75 316 278 227 260 282 320 308 313 354 356 350 350 348 347 326 318 323 314 308 307 304
57 67 60 55 57 66 91 131 155 118 75 83 92 209 216 221 136 171 189 65 232 155 70 11 333 334 303 309 311 327 347 295 319 354 280 265 263 182 164 210 249 199 161 168 227 198 146 276 300 22 298 321 213 179 35 21 115 108 182 228 208 102 88 102 297 346 34 262 270 262 259 286 349 304 319 358 349 340 345 345 340 331 330 332 324 320 318 314
96 86 63 42 41 63 100 106 140 113 74 77 120 245 220 178 45 155 164 133 232 83 87 159 254 237 202 265 281 290 333 309 322 1 277 272 286 157 147 143 121 211 293 50 225 75 115 280 303 340 184 307 1 94 356 353 56 102 208 216 85 127 257 57 97 315 343 293 286 299 283 275 224 244 313 340 333 334 339 339 339 334 333 331 325 324 322 321
129 86 42 21 27 58 121 132 110 78 69 92 221 247 210 221 309 216 191 168 114 98 117 212 258 348 179 185 233 271 302 266 271 346 268 252 293 116 130 158 164 225 300 71 129 236 109 120 290 273 208 315 11 146 238 312 29 24 353 356 36 157 193 158 141 181 225 287 291 319 316 280 214 211 279 321 322 331 329 332 336 328 324 325 322 322 321 321
121 76 317 342 32 66 129 93 60 61 71 173 209 211 225 260 244 223 258 263 123 98 155 198 176 294 236 212 226 263 338 217 206 210 244 247 289 353 78 88 135 161 297 28 107 248 75 125 257 290 311 297 279 209 198 176 137 73 54 337 327 166 179 193 260 147 142 247 264 313 303 269 199 209 272 320 323 316 323 330 330 322 323 326 324 322 322 322
93 59 289 332 37 125 104 62 44 67 103 186 210 202 222 192 146 35 334 350 63 63 101 155 166 192 225 241 256 221 203 244 208 217 254 241 245 294 5 32 118 157 101 61 109 326 97 152 219 294 310 260 243 259 173 165 155 149 171 198 185 153 125 5 298 287 113 215 200 233 290 280 220 215 271 325 319 318 334 335 328 324 325 325 326 326 323 322
81 89 289 347 9 179 91 62 25 104 120 184 243 244 254 88 104 74 358 26 51 64 65 102 173 189 191 207 232 191 191 240 217 217 241 218 208 232 34 26 326 222 106 124 246 252 146 116 116 266 263 255 279 40 58 125 128 124 152 178 149 128 126 149 264 270 186 255 179 130 276 275 244 217 242 338 333 337 341 333 327 325 322 322 326 326 324 323
102 184 340 23 4 129 83 53 329 10 52 249 295 319 345 64 84 68 3 22 73 92 40 301 197 205 220 190 156 183 200 213 196 198 230 233 239 277 30 5 336 2 68 80 265 291 118 85 26 277 281 331 35 37 24 47 91 104 337 115 134 142 135 156 201 200 177 237 260 302 267 265 260 239 303 345 341 340 336 330 330 325 321 324 325 325 326 325
135 196 6 16 3 102 111 153 245 328 289 305 14 4 319 102 125 106 147 233 194 137 149 234 203 189 208 151 146 203 209 217 215 221 225 214 236 43 47 358 345 52 58 179 171 159 260 160 54 327 325 339 356 2 351 350 45 152 262 353 136 128 101 116 159 91 310 235 214 243 266 267 281 303 333 341 336 332 328 328 328 321 319 323 324 325 326 326
106 45 302 349 21 72 119 176 150 150 258 23 17 335 349 24 131 139 179 198 188 161 159 285 222 146 111 129 169 235 229 229 246 300 20 216 263 19 50 352 337 77 273 261 256 306 232 195 119 74 315 301 305 319 309 297 316 248 272 291 220 176 144 176 215 72 289 245 184 204 268 281 291 306 323 329 326 324 324 323 320 316 316 318 321 324 323 324
122 45 309 331 19 60 67 101 113 116 143 127 345 326 35 73 287 314 179 183 156 137 136 319 170 111 85 148 240 265 256 247 284 350 352 264 273 313 25 359 31 65 316 317 17 62 100 301 205 178 204 239 259 265 223 89 309 283 284 260 232 198 153 130 98 163 227 237 194 219 255 279 292 304 316 320 321 321 320 320 320 318 319 320 322 321 320 323
118 124 87 326 354 39 40 23 57 77 128 175 208 271 234 275 306 349 105 208 94 92 116 153 153 173 188 189 229 255 264 317 9 314 257 244 266 289 331 67 57 355 335 330 21 79 90 300 254 194 229 249 266 283 293 352 286 268 272 268 248 196 148 142 195 233 213 41 280 245 242 272 291 304 313 315 319 321 321 323 323 322 323 325 322 319 321 328
108 144 136 141 241 32 39 20 64 81 67 96 137 161 330 329 303 264 218 357 24 107 182 205 239 219 204 188 156 234 302 339 299 248 234 261 291 327 0 41 18 332 340 357 349 94 120 245 252 183 259 269 276 283 275 269 273 252 236 263 263 195 169 185 228 243 211 202 266 271 276 283 292 302 306 309 316 320 321 322 322 322 324 323 320 322 329 335
87 112 14 11 83 155 84 6 102 99 75 69 107 178 177 188 244 245 191 72 359 276 192 225 262 242 214 198 144 192 260 317 301 273 216 211 275 317 353 344 326 333 5 44 355 89 146 235 238 150 286 286 280 280 269 225 283 304 262 257 261 224 205 209 239 255 237 231 255 276 289 289 285 287 293 305 317 318 321 323 323 324 324 321 321 328 336 335
124 147 178 42 66 93 42 24 95 101 66 41 128 243 178 178 221 247 174 150 223 252 184 216 251 235 192 187 161 215 224 178 225 256 186 171 291 225 219 222 149 25 17 59 3 351 169 254 202 111 310 292 292 340 357 156 184 286 288 290 306 283 245 224 243 264 261 256 263 274 284 284 277 285 300 312 319 323 330 329 327 326 323 321 326 335 337 333
104 121 134 111 90 9 359 20 89 107 86 313 202 218 204 202 212 208 200 201 191 191 186 189 198 137 93 138 194 245 236 182 205 243 187 182 261 218 223 184 136 117 26 65 20 21 111 237 14 61 350 284 295 0 337 209 152 279 309 347 348 330 308 260 244 254 262 277 292 296 294 303 311 317 319 321 327 333 335 332 330 324 319 321 332 337 334 330
113 82 95 103 88 314 50 47 42 83 221 242 201 193 213 238 224 184 192 257 164 193 204 178 159 137 61 240 237 249 236 187 221 265 181 152 91 88 85 75 102 129 162 153 108 53 125 143 101 60 310 273 294 328 320 15 77 340 310 38 0 326 300 283 281 281 265 261 306 317 311 314 319 328 330 331 334 334 336 340 330 317 317 330 338 335 330 325